$Date,$Time,DM0201B,DM0203B,DM0205B,DM0207B,DM0209B
09/03/99,00:00:01,0,0,0,0,0
09/03/99,00:05:01,142,313,-23,53,945
09/03/99,00:10:01,130,324,-23,53,945
09/03/99,00:15:01,112,327,-23,55,945
09/03/99,00:20:01,106,317,-23,55,945
09/03/99,00:25:01,131,317,-23,55,945
09/03/99,00:30:01,154,307,-23,55,943
09/03/99,00:35:01,135,317,-23,57,943
09/03/99,00:40:01,145,317,-23,57,943
09/03/99,00:45:01,139,318,-23,57,943
09/03/99,00:50:01,136,324,-23,57,943
09/03/99,00:55:01,128,322,-23,57,943
09/03/99,01:00:01,128,326,-23,57,943
09/03/99,01:05:01,144,337,-23,57,943
09/03/99,01:10:01,137,319,-23,57,943
09/03/99,01:15:01,125,319,-23,57,943
09/03/99,01:20:01,135,319,-23,57,943
09/03/99,01:25:01,166,317,-23,55,943
09/03/99,01:30:01,127,319,-23,55,943
09/03/99,01:35:01,115,320,-23,55,943
09/03/99,01:40:01,169,326,-23,55,943
09/03/99,01:45:01,111,323,-23,53,943
09/03/99,01:50:01,103,322,-23,53,943
09/03/99,01:55:01,135,322,-23,53,943
09/03/99,02:00:01,102,335,-23,51,943
09/03/99,02:05:01,103,318,-23,51,943
09/03/99,02:10:01,87,325,-23,51,943
09/03/99,02:15:01,105,343,-21,49,943
09/03/99,02:20:01,136,319,-21,47,943
09/03/99,02:25:01,144,315,-21,47,943
09/03/99,02:30:01,141,319,-21,47,943
09/03/99,02:35:01,119,308,-21,45,943
09/03/99,02:40:01,126,321,-21,45,943
09/03/99,02:45:01,100,343,-21,43,943
09/03/99,02:50:01,84,353,-21,41,943
09/03/99,02:55:01,119,343,-21,41,943
09/03/99,03:00:01,119,331,-21,39,943
09/03/99,03:05:01,107,331,-21,39,943
09/03/99,03:10:01,147,326,-21,37,943
09/03/99,03:15:01,123,323,-21,35,943
09/03/99,03:20:01,130,313,-21,35,943
09/03/99,03:25:01,86,316,-21,33,943
09/03/99,03:30:01,146,304,-21,31,943
09/03/99,03:35:01,167,304,-21,29,943
09/03/99,03:40:01,143,304,-21,29,943
09/03/99,03:45:01,177,304,-21,27,943
09/03/99,03:50:01,195,304,-21,25,943
09/03/99,03:55:01,167,304,-21,23,943
09/03/99,04:00:01,132,304,-21,21,943
09/03/99,04:05:01,194,294,-21,21,943
09/03/99,04:10:01,153,294,-21,19,943
09/03/99,04:15:01,133,297,-21,17,943
09/03/99,04:20:01,160,297,-21,15,943
09/03/99,04:25:01,145,310,-21,13,943
09/03/99,04:30:01,115,310,-21,9,943
09/03/99,04:35:01,110,310,-21,7,943
09/03/99,04:40:01,96,310,-21,7,943
09/03/99,04:45:01,108,311,-21,5,943
09/03/99,04:50:01,119,297,-21,5,943
09/03/99,04:55:01,67,332,-21,5,943
09/03/99,05:00:01,68,343,-21,3,943
09/03/99,05:05:01,82,325,-21,3,943
09/03/99,05:10:01,103,315,-21,3,943
09/03/99,05:15:01,106,315,-21,3,943
09/03/99,05:20:01,117,315,-21,1,943
09/03/99,05:25:01,125,322,-21,1,943
09/03/99,05:30:01,108,320,-21,1,943
09/03/99,05:35:01,81,324,-21,1,943
09/03/99,05:40:01,134,321,-21,1,943
09/03/99,05:45:01,67,333,-21,1,943
09/03/99,05:50:01,97,334,-21,1,943
09/03/99,05:55:01,117,327,-21,1,943
09/03/99,06:00:01,73,314,-21,1,943
09/03/99,06:05:01,99,321,-21,1,943
09/03/99,06:10:01,101,319,-21,1,943
09/03/99,06:15:01,111,307,-21,1,943
09/03/99,06:20:01,71,331,-21,1,943
09/03/99,06:25:01,92,317,-21,1,943
09/03/99,06:30:01,105,320,-21,1,943
09/03/99,06:35:01,89,320,-23,1,943
09/03/99,06:40:01,99,333,-23,1,943
09/03/99,06:45:01,86,344,-23,1,943
09/03/99,06:50:01,100,344,-23,1,943
09/03/99,06:55:01,99,331,-23,1,943
09/03/99,07:00:01,113,331,-23,1,943
09/03/99,07:05:01,126,331,-23,1,943
09/03/99,07:10:01,143,310,-23,1,943
09/03/99,07:15:01,119,321,-21,1,943
09/03/99,07:20:01,126,321,-21,1,943
09/03/99,07:25:01,135,321,-21,1,943
09/03/99,07:30:01,130,321,-23,1,943
09/03/99,07:35:01,122,321,-23,1,943
09/03/99,07:40:01,123,336,-23,1,943
09/03/99,07:45:01,149,327,-23,1,943
09/03/99,07:50:01,123,329,-23,1,943
09/03/99,07:55:01,134,329,-23,1,943
09/03/99,08:00:01,124,335,-23,1,943
09/03/99,08:05:01,96,339,-23,1,943
09/03/99,08:10:01,94,339,-23,1,943
09/03/99,08:15:01,119,328,-25,1,943
09/03/99,08:20:01,84,343,-25,1,943
09/03/99,08:25:01,113,322,-25,1,945
09/03/99,08:30:01,119,321,-25,1,945
09/03/99,08:35:01,103,326,-25,1,945
09/03/99,08:40:01,122,308,-25,1,945
09/03/99,08:45:01,101,319,-25,1,945
09/03/99,08:50:01,102,329,-25,1,945
09/03/99,08:55:01,102,329,-25,1,945
09/03/99,09:00:01,75,318,-25,1,945
09/03/99,09:05:01,84,326,-25,1,945
09/03/99,09:10:01,77,347,-25,1,945
09/03/99,09:15:01,65,330,-25,1,945
09/03/99,09:20:01,77,323,-25,1,945
09/03/99,09:25:01,76,313,-25,1,945
09/03/99,09:30:01,79,311,-25,1,945
09/03/99,09:35:01,71,348,-25,1,945
09/03/99,09:40:01,74,331,-25,1,945
09/03/99,09:45:01,73,326,-25,1,945
09/03/99,09:50:01,82,315,-25,1,945
09/03/99,09:55:01,119,315,-25,1,945
09/03/99,10:00:01,90,315,-25,1,945
09/03/99,10:05:01,86,315,-23,1,945
09/03/99,10:10:01,87,325,-23,1,945
09/03/99,10:15:01,95,325,-23,1,945
09/03/99,10:20:01,95,325,-23,1,945
09/03/99,10:25:01,95,325,-25,1,945
09/03/99,10:30:01,95,325,-25,1,945
09/03/99,10:35:01,95,325,-25,1,945
09/03/99,10:40:01,73,314,-25,1,945
09/03/99,10:45:01,73,346,-25,1,945
09/03/99,10:50:01,73,356,-25,1,945
09/03/99,10:55:01,73,356,-25,1,945
09/03/99,11:00:01,73,3,-25,1,945
09/03/99,11:05:01,61,13,-25,1,947
09/03/99,11:10:01,61,13,-25,1,947
09/03/99,11:15:01,61,3,-25,1,947
09/03/99,11:20:01,51,359,-25,1,947
09/03/99,11:25:01,61,349,-25,1,947
09/03/99,11:30:01,58,349,-25,1,947
09/03/99,11:35:01,58,50,-25,1,947
09/03/99,11:40:01,69,356,-25,1,947
09/03/99,11:45:01,80,346,-25,1,947
09/03/99,11:50:01,70,346,-25,1,947
09/03/99,11:55:01,60,333,-25,1,947
09/03/99,12:00:01,79,323,-25,1,947
09/03/99,12:05:01,83,309,-25,1,947
09/03/99,12:10:01,78,315,-25,1,947
09/03/99,12:15:01,114,311,-25,1,947
09/03/99,12:20:01,117,311,-25,1,947
09/03/99,12:25:01,101,311,-25,1,947
09/03/99,12:30:01,110,301,-25,1,947
09/03/99,12:35:01,151,301,-25,1,947
09/03/99,12:40:01,131,315,-25,1,947
09/03/99,12:45:01,128,307,-25,1,947
09/03/99,12:50:01,125,301,-25,1,947
09/03/99,12:55:01,126,312,-25,1,947
09/03/99,13:00:01,116,300,-25,1,947
09/03/99,13:05:01,103,301,-25,1,947
09/03/99,13:10:01,128,301,-25,1,947
09/03/99,13:15:01,142,305,-25,1,949
09/03/99,13:20:01,117,306,-25,1,949
09/03/99,13:25:01,125,306,-25,1,949
09/03/99,13:30:01,143,307,-25,1,949
09/03/99,13:35:01,126,308,-25,1,949
09/03/99,13:40:01,90,310,-25,1,949
09/03/99,13:45:01,118,310,-25,1,949
09/03/99,13:50:01,133,310,-25,1,949
09/03/99,13:55:01,112,309,-25,1,949
09/03/99,14:00:01,117,310,-25,1,949
09/03/99,14:05:01,76,310,-25,1,949
09/03/99,14:10:01,129,310,-25,1,949
09/03/99,14:15:01,100,320,-25,1,949
09/03/99,14:20:01,117,320,-25,1,949
09/03/99,14:25:01,103,320,-25,1,949
09/03/99,14:30:01,115,320,-25,1,949
09/03/99,14:35:01,66,309,-25,1,949
09/03/99,14:40:01,92,309,-25,1,949
09/03/99,14:45:01,74,307,-25,1,949
09/03/99,14:50:01,76,307,-25,1,949
09/03/99,14:55:01,66,311,-25,1,949
09/03/99,15:00:01,60,335,-25,1,949
09/03/99,15:05:01,84,324,-25,1,949
09/03/99,15:10:01,54,346,-23,1,949
09/03/99,15:15:01,72,312,-23,1,951
09/03/99,15:20:01,31,315,-23,1,951
09/03/99,15:25:01,0,39,-23,1,951
09/03/99,15:30:01,62,108,-23,1,951
09/03/99,15:35:01,7,208,-23,1,951
09/03/99,15:40:01,24,215,-23,1,951
09/03/99,15:45:01,9,193,-23,1,951
09/03/99,15:50:01,179,167,-23,1,951
09/03/99,15:55:01,121,182,-23,1,951
09/03/99,16:00:01,130,174,-23,1,951
09/03/99,16:05:01,134,186,-23,1,951
09/03/99,16:10:01,176,180,-23,1,951
09/03/99,16:15:01,189,191,-23,1,951
09/03/99,16:20:01,249,190,-23,1,951
09/03/99,16:25:01,192,174,-23,1,951
09/03/99,16:30:01,165,185,-23,1,951
09/03/99,16:35:01,182,183,-23,1,951
09/03/99,16:40:01,166,183,-23,1,951
09/03/99,16:45:01,176,175,-23,1,951
09/03/99,16:50:01,161,175,-23,1,953
09/03/99,16:55:01,199,175,-23,1,953
09/03/99,17:00:01,159,183,-23,1,953
09/03/99,17:05:01,203,164,-23,1,953
09/03/99,17:10:01,120,165,-23,1,953
09/03/99,17:15:01,192,185,-23,1,953
09/03/99,17:20:01,212,180,-23,1,953
09/03/99,17:25:01,403,175,-23,1,953
09/03/99,17:30:01,158,175,-23,1,953
09/03/99,17:35:01,317,181,-23,1,953
09/03/99,17:40:01,282,186,-23,1,953
09/03/99,17:45:01,222,168,-23,1,953
09/03/99,17:50:01,387,171,-23,1,953
09/03/99,17:55:01,473,176,-23,1,953
09/03/99,18:00:01,327,166,-23,1,953
09/03/99,18:05:01,430,167,-23,1,953
09/03/99,18:10:01,447,178,-23,1,953
09/03/99,18:15:01,494,169,-23,1,953
09/03/99,18:20:01,487,167,-23,1,953
09/03/99,18:25:01,454,167,-23,1,953
09/03/99,18:30:01,408,167,-23,1,953
09/03/99,18:35:01,456,167,-23,1,953
09/03/99,18:40:01,434,167,-23,1,953
09/03/99,18:45:01,394,167,-23,1,953
09/03/99,18:50:01,424,170,-23,1,953
09/03/99,18:55:01,501,170,-23,1,953
09/03/99,19:00:01,477,170,-23,1,953
09/03/99,19:05:01,460,170,-23,1,953
09/03/99,19:10:01,523,170,-23,1,953
09/03/99,19:15:01,578,170,-23,1,953
09/03/99,19:20:01,504,158,-23,1,953
09/03/99,19:25:01,527,170,-23,1,953
09/03/99,19:30:01,541,170,-23,1,953
09/03/99,19:35:01,481,185,-23,1,953
09/03/99,19:40:01,416,192,-23,1,955
09/03/99,19:45:01,356,182,-23,1,955
09/03/99,19:50:01,539,178,-23,1,955
09/03/99,19:55:01,406,180,-23,1,955
09/03/99,20:00:01,356,189,-23,1,955
09/03/99,20:05:01,429,194,-23,1,955
09/03/99,20:10:01,378,189,-23,1,955
09/03/99,20:15:01,470,182,-23,1,955
09/03/99,20:20:01,359,192,-23,1,955
09/03/99,20:25:01,436,181,-23,1,955
09/03/99,20:30:01,466,164,-23,1,955
09/03/99,20:35:01,463,175,-23,1,955
09/03/99,20:40:01,451,174,-23,1,955
09/03/99,20:45:01,456,174,-23,1,955
09/03/99,20:50:01,460,174,-23,1,955
09/03/99,20:55:01,473,183,-23,1,955
09/03/99,21:00:01,400,183,-23,1,957
09/03/99,21:05:01,344,183,-23,3,957
09/03/99,21:10:01,362,172,-23,3,957
09/03/99,21:15:01,297,188,-23,3,957
09/03/99,21:20:01,312,185,-23,5,957
09/03/99,21:25:01,281,200,-23,7,957
09/03/99,21:30:01,435,177,-23,9,957
09/03/99,21:35:01,493,169,-23,11,957
09/03/99,21:40:01,500,169,-23,13,957
09/03/99,21:45:01,539,169,-23,13,955
09/03/99,21:50:01,520,179,-23,15,955
09/03/99,21:55:01,440,179,-23,17,955
09/03/99,22:00:01,402,173,-23,17,957
09/03/99,22:05:01,441,173,-23,19,957
09/03/99,22:10:01,463,173,-23,23,957
09/03/99,22:15:01,437,163,-23,25,957
09/03/99,22:20:01,320,192,-23,25,957
09/03/99,22:25:01,310,194,-23,25,957
09/03/99,22:30:01,242,197,-23,27,957
09/03/99,22:35:01,295,195,-23,27,957
09/03/99,22:40:01,454,171,-23,27,957
09/03/99,22:45:01,499,171,-23,29,957
09/03/99,22:50:01,483,171,-23,27,957
09/03/99,22:55:01,426,182,-23,21,957
09/03/99,23:00:01,421,177,-23,25,957
09/03/99,23:05:01,365,184,-23,29,957
09/03/99,23:10:01,347,195,-23,29,957
09/03/99,23:15:01,265,196,-23,31,959
09/03/99,23:20:01,520,167,-23,29,959
09/03/99,23:25:01,555,167,-23,29,957
09/03/99,23:30:01,507,167,-23,27,957
09/03/99,23:35:01,317,192,-23,27,957
09/03/99,23:40:01,304,194,-23,19,959
09/03/99,23:45:01,310,187,-23,19,959
09/03/99,23:50:01,392,181,-23,17,959
09/03/99,23:55:01,313,192,-23,23,959
09/04/99,00:00:01,283,183,-23,23,959
